Location: Mohawk View
(42.7837°N, 73.7885°W)
Time: 16:30:46
(UTC+00:00)

ADEOS II - Pass Details

Date: 17 June 2021
Orbit: 799 x 800 km, 98.6° (Epoch: 02 August)

Event Time Altitude Azimuth Distance (km) Brightness Sun altitude
Rises 07:49:09 0° 6° (N) 3,320 6.3 -12.8°
Reaches altitude 10° 07:51:36 10° 0° (N) 2,385 5.3 -12.5°
Maximum altitude 07:56:31 42° 291° (WNW) 1,135 2.7 -11.9°
Enters shadow 08:00:28 15° 226° (SW) 2,026 3.5 -11.4°
